• en Suisse
  • Liste des pays
  • À 7 jours
  • Température de l'eau
  • Carte satellitaire
  • Carte météo
  • Widgets météo
  • user-avatar
    Se connecter

    Météo par heure à Canberra

    Ce jour, 18 Juin, Lundi

    Heure Température Précipitation Vent Pression Humidité
    00:00 +5°C° 0,1 mm 2 m/s 707 mmHg 90%
    01:00 +4°C° 0,1 mm 3 m/s 707 mmHg 90%
    02:00 +4°C° 0 mm 3 m/s 708 mmHg 89%
    03:00 +4°C° 0 mm 3 m/s 708 mmHg 88%
    04:00 +3°C° 0 mm 3 m/s 708 mmHg 88%
    05:00 +3°C° 0 mm 3 m/s 708 mmHg 87%
    06:00 +3°C° 0 mm 3 m/s 709 mmHg 87%
    07:00 +3°C° 0 mm 3 m/s 709 mmHg 86%
    08:00 +5°C° 0 mm 3 m/s 710 mmHg 79%
    09:00 +7°C° 0 mm 4 m/s 710 mmHg 71%
    10:00 +10°C° 0 mm 4 m/s 711 mmHg 63%
    11:00 +10°C° 0 mm 4 m/s 711 mmHg 59%
    12:00 +11°C° 0 mm 4 m/s 711 mmHg 55%
    13:00 +12°C° 0 mm 5 m/s 711 mmHg 51%
    14:00 +11°C° 0,1 mm 4 m/s 711 mmHg 58%
    15:00 +10°C° 0,1 mm 3 m/s 711 mmHg 66%
    16:00 +9°C° 0 mm 2 m/s 711 mmHg 75%
    17:00 +8°C° 0,1 mm 2 m/s 711 mmHg 78%
    18:00 +7°C° 0,1 mm 2 m/s 712 mmHg 81%
    19:00 +5°C° 0,1 mm 2 m/s 712 mmHg 84%
    20:00 +5°C° 0 mm 2 m/s 712 mmHg 82%
    21:00 +5°C° 0 mm 2 m/s 712 mmHg 81%
    22:00 +5°C° 0 mm 2 m/s 712 mmHg 80%
    23:00 +5°C° 0 mm 2 m/s 712 mmHg 80%

    Demain, 19 Juin, Mardi

    Heure Température Précipitation Vent Pression Humidité
    00:00 +5°C° 0 mm 2 m/s 712 mmHg 81%
    01:00 +5°C° 0 mm 2 m/s 713 mmHg 82%
    02:00 +4°C° 0 mm 2 m/s 713 mmHg 83%
    03:00 +4°C° 0 mm 2 m/s 713 mmHg 84%
    04:00 +4°C° 0 mm 2 m/s 713 mmHg 86%
    05:00 +4°C° 0 mm 2 m/s 713 mmHg 86%
    06:00 +4°C° 0 mm 2 m/s 713 mmHg 87%
    07:00 +4°C° 0 mm 2 m/s 713 mmHg 87%
    08:00 +5°C° 0 mm 3 m/s 714 mmHg 80%
    09:00 +6°C° 0 mm 4 m/s 715 mmHg 73%
    10:00 +8°C° 0 mm 4 m/s 715 mmHg 65%
    11:00 +10°C° 0 mm 4 m/s 715 mmHg 63%
    12:00 +10°C° 0 mm 4 m/s 715 mmHg 61%
    13:00 +11°C° 0 mm 4 m/s 715 mmHg 59%
    14:00 +11°C° 0 mm 3 m/s 715 mmHg 61%
    15:00 +10°C° 0 mm 3 m/s 715 mmHg 63%
    16:00 +10°C° 0 mm 3 m/s 714 mmHg 65%
    17:00 +9°C° 0 mm 3 m/s 715 mmHg 71%
    18:00 +7°C° 0 mm 2 m/s 715 mmHg 78%
    19:00 +6°C° 0 mm 2 m/s 715 mmHg 85%
    20:00 +6°C° 0 mm 2 m/s 716 mmHg 87%
    21:00 +5°C° 0 mm 2 m/s 716 mmHg 88%
    22:00 +5°C° 0 mm 2 m/s 716 mmHg 90%
    23:00 +5°C° 0 mm 2 m/s 716 mmHg 91%

    Après-demain, 20 Juin, Mercredi

    Heure Température Précipitation Vent Pression Humidité
    00:00 +5°C° 0 mm 2 m/s 716 mmHg 93%
    01:00 +5°C° 0 mm 2 m/s 716 mmHg 94%
    02:00 +4°C° 0 mm 2 m/s 716 mmHg 95%
    03:00 +4°C° 0 mm 2 m/s 716 mmHg 96%
    04:00 +5°C° 0 mm 1 m/s 716 mmHg 96%
    05:00 +5°C° 0 mm 1 m/s 716 mmHg 96%
    06:00 +5°C° 0 mm 1 m/s 716 mmHg 96%
    07:00 +5°C° 0 mm 1 m/s 716 mmHg 96%
    08:00 +7°C° 0 mm 1 m/s 717 mmHg 90%
    09:00 +8°C° 0 mm 2 m/s 717 mmHg 83%
    10:00 +10°C° 0 mm 2 m/s 717 mmHg 76%
    11:00 +12°C° 0 mm 1 m/s 717 mmHg 71%
    12:00 +12°C° 0 mm 1 m/s 716 mmHg 67%
    13:00 +13°C° 0 mm 1 m/s 716 mmHg 62%
    14:00 +13°C° 0 mm 1 m/s 716 mmHg 64%
    15:00 +12°C° 0 mm 1 m/s 716 mmHg 66%
    16:00 +12°C° 0 mm 1 m/s 716 mmHg 67%
    17:00 +10°C° 0 mm 1 m/s 716 mmHg 76%
    18:00 +7°C° 0 mm 0 m/s 716 mmHg 84%
    19:00 +6°C° 0 mm 0 m/s 716 mmHg 92%
    20:00 +5°C° 0 mm 0 m/s 716 mmHg 92%
    21:00 +5°C° 0 mm 0 m/s 716 mmHg 93%
    22:00 +5°C° 0 mm 0 m/s 716 mmHg 93%
    23:00 +4°C° 0 mm 0 m/s 716 mmHg 93%

    21 Juin, Jeudi

    Heure Température Précipitation Vent Pression Humidité
    00:00 +4°C° 0 mm 0 m/s 716 mmHg 93%
    01:00 +5°C° 0 mm 1 m/s 716 mmHg 93%
    02:00 +5°C° 0 mm 1 m/s 715 mmHg 92%
    03:00 +5°C° 0 mm 1 m/s 715 mmHg 92%
    04:00 +5°C° 0 mm 1 m/s 715 mmHg 91%
    05:00 +4°C° 0 mm 1 m/s 716 mmHg 90%
    06:00 +4°C° 0 mm 1 m/s 716 mmHg 90%
    07:00 +4°C° 0 mm 1 m/s 716 mmHg 89%
    08:00 +6°C° 0 mm 1 m/s 717 mmHg 78%
    09:00 +8°C° 0 mm 0 m/s 717 mmHg 68%
    10:00 +11°C° 0 mm 0 m/s 717 mmHg 57%
    11:00 +12°C° 0 mm 0 m/s 717 mmHg 52%
    12:00 +14°C° 0 mm 1 m/s 717 mmHg 47%
    13:00 +15°C° 0 mm 1 m/s 716 mmHg 41%
    14:00 +15°C° 0 mm 1 m/s 716 mmHg 45%
    15:00 +14°C° 0 mm 1 m/s 716 mmHg 49%
    16:00 +13°C° 0 mm 1 m/s 716 mmHg 53%
    17:00 +11°C° 0 mm 1 m/s 716 mmHg 64%
    18:00 +9°C° 0 mm 1 m/s 716 mmHg 75%
    19:00 +6°C° 0 mm 1 m/s 716 mmHg 86%
    20:00 +6°C° 0 mm 1 m/s 716 mmHg 87%
    21:00 +4°C° 0 mm 0 m/s 717 mmHg 89%
    22:00 +4°C° 0 mm 0 m/s 717 mmHg 90%
    23:00 +3°C° 0 mm 0 m/s 717 mmHg 90%

    22 Juin, Vendredi

    Heure Température Précipitation Vent Pression Humidité
    00:00 +3°C° 0 mm 0 m/s 717 mmHg 90%
    01:00 +3°C° 0 mm 0 m/s 716 mmHg 90%
    02:00 +3°C° 0 mm 0 m/s 716 mmHg 90%
    03:00 +2°C° 0 mm 0 m/s 716 mmHg 90%
    04:00 +3°C° 0 mm 1 m/s 716 mmHg 90%
    05:00 +3°C° 0 mm 1 m/s 716 mmHg 89%
    06:00 +3°C° 0 mm 1 m/s 717 mmHg 88%
    07:00 +3°C° 0 mm 1 m/s 717 mmHg 88%
    08:00 +5°C° 0 mm 1 m/s 717 mmHg 77%
    09:00 +8°C° 0 mm 1 m/s 718 mmHg 66%
    10:00 +10°C° 0 mm 0 m/s 718 mmHg 54%
    11:00 +12°C° 0 mm 1 m/s 718 mmHg 49%
    12:00 +13°C° 0 mm 1 m/s 717 mmHg 44%
    13:00 +14°C° 0 mm 2 m/s 717 mmHg 39%
    14:00 +14°C° 0 mm 2 m/s 716 mmHg 43%
    15:00 +13°C° 0 mm 2 m/s 716 mmHg 46%
    16:00 +13°C° 0 mm 2 m/s 716 mmHg 50%
    17:00 +10°C° 0 mm 1 m/s 716 mmHg 59%
    18:00 +8°C° 0 mm 1 m/s 717 mmHg 69%
    19:00 +5°C° 0 mm 1 m/s 717 mmHg 78%
    20:00 +5°C° 0 mm 1 m/s 717 mmHg 79%
    21:00 +5°C° 0 mm 1 m/s 717 mmHg 79%
    22:00 +4°C° 0 mm 1 m/s 717 mmHg 80%
    23:00 +4°C° 0 mm 1 m/s 717 mmHg 79%

    23 Juin, Samedi

    Heure Température Précipitation Vent Pression Humidité
    00:00 +4°C° 0 mm 1 m/s 716 mmHg 79%
    01:00 +3°C° 0 mm 1 m/s 716 mmHg 78%
    02:00 +3°C° 0 mm 1 m/s 716 mmHg 78%
    03:00 +3°C° 0 mm 1 m/s 716 mmHg 78%
    04:00 +3°C° 0 mm 1 m/s 716 mmHg 77%
    05:00 +3°C° 0 mm 1 m/s 716 mmHg 77%
    06:00 +3°C° 0 mm 1 m/s 716 mmHg 77%
    07:00 +3°C° 0 mm 1 m/s 716 mmHg 76%
    08:00 +5°C° 0 mm 1 m/s 717 mmHg 67%
    09:00 +8°C° 0 mm 1 m/s 717 mmHg 58%
    10:00 +10°C° 0 mm 1 m/s 717 mmHg 49%
    11:00 +12°C° 0 mm 2 m/s 717 mmHg 46%
    12:00 +13°C° 0 mm 2 m/s 716 mmHg 43%
    13:00 +13°C° 0 mm 3 m/s 715 mmHg 40%
    14:00 +12°C° 0 mm 3 m/s 715 mmHg 44%
    15:00 +12°C° 0 mm 3 m/s 715 mmHg 48%
    16:00 +11°C° 0 mm 3 m/s 715 mmHg 52%
    17:00 +9°C° 0 mm 2 m/s 715 mmHg 63%
    18:00 +7°C° 0 mm 2 m/s 715 mmHg 73%
    19:00 +5°C° 0 mm 2 m/s 715 mmHg 83%
    20:00 +4°C° 0 mm 2 m/s 715 mmHg 85%
    21:00 +3°C° 0 mm 2 m/s 715 mmHg 87%
    22:00 +3°C° 0 mm 2 m/s 716 mmHg 88%
    23:00 +3°C° 0 mm 2 m/s 715 mmHg 88%
    Voir plus